Time,TemperatureF,DewpointF,PressureIn,WindDirection,WindDirectionDegrees,WindSpeedMPH,WindSpeedGustMPH,Humidity,HourlyPrecipIn,Conditions,Clouds,dailyrainin,SoftwareType,DateUTC
2013-01-30 00:01:00,70.0,66.0,30.01,NNW,344,1.0,8.0,88,0.00,,,0.05,,2013-01-30 10:01:00,
2013-01-30 00:11:00,70.0,66.0,30.01,NNW,344,1.0,8.0,88,0.00,,,0.05,,2013-01-30 10:11:00,
2013-01-30 00:21:00,69.0,65.0,30.01,NNE,13,4.0,7.0,87,0.00,,,0.05,,2013-01-30 10:21:00,
2013-01-30 00:31:00,69.0,65.0,30.00,North,355,7.0,9.0,87,0.00,,,0.05,,2013-01-30 10:31:00,
2013-01-30 00:41:00,69.0,65.0,30.00,North,355,7.0,9.0,87,0.00,,,0.05,,2013-01-30 10:41:00,
2013-01-30 00:51:00,69.0,65.0,30.00,NNE,28,8.0,8.0,87,0.00,,,0.05,,2013-01-30 10:51:00,
2013-01-30 01:01:00,69.0,65.0,30.01,NNE,30,6.0,8.0,87,0.00,,,0.05,,2013-01-30 11:01:00,
2013-01-30 01:11:00,69.0,65.0,30.01,NNE,30,6.0,8.0,87,0.00,,,0.05,,2013-01-30 11:11:00,
2013-01-30 01:21:00,70.0,66.0,30.00,North,0,6.0,8.0,87,0.00,,,0.05,,2013-01-30 11:21:00,
2013-01-30 01:32:00,70.0,66.0,30.00,NW,319,8.0,13.0,88,0.00,,,0.05,,2013-01-30 11:32:00,
2013-01-30 01:41:00,70.0,66.0,30.00,NW,319,8.0,13.0,88,0.00,,,0.05,,2013-01-30 11:41:00,
2013-01-30 01:52:00,69.0,65.0,30.00,NNW,336,3.0,7.0,87,0.00,,,0.05,,2013-01-30 11:52:00,
2013-01-30 02:01:00,69.0,65.0,30.00,North,355,2.0,10.0,87,0.00,,,0.05,,2013-01-30 12:01:00,
2013-01-30 02:12:00,69.0,65.0,30.00,North,355,2.0,10.0,87,0.00,,,0.05,,2013-01-30 12:12:00,
2013-01-30 02:21:00,69.0,65.0,30.00,NNE,16,2.0,8.0,87,0.00,,,0.05,,2013-01-30 12:21:00,
2013-01-30 02:32:00,69.0,65.0,29.99,NNE,28,6.0,6.0,87,0.00,,,0.05,,2013-01-30 12:32:00,
2013-01-30 02:42:00,69.0,65.0,29.99,NNE,28,6.0,6.0,87,0.00,,,0.05,,2013-01-30 12:42:00,
2013-01-30 03:02:00,69.0,65.0,29.99,NNE,29,4.0,4.0,87,0.00,,,0.05,,2013-01-30 13:02:00,
2013-01-30 03:12:00,69.0,65.0,29.99,NNE,29,4.0,4.0,87,0.00,,,0.05,,2013-01-30 13:12:00,
2013-01-30 03:22:00,69.0,65.0,29.99,NNE,28,2.0,6.0,87,0.00,,,0.05,,2013-01-30 13:22:00,
2013-01-30 03:31:00,69.0,65.0,29.99,NNW,346,5.0,8.0,87,0.00,,,0.05,,2013-01-30 13:31:00,
2013-01-30 03:42:00,69.0,65.0,29.99,NNW,346,5.0,8.0,87,0.00,,,0.05,,2013-01-30 13:42:00,
2013-01-30 03:52:00,69.0,65.0,29.98,NNE,13,0.0,5.0,87,0.00,,,0.05,,2013-01-30 13:52:00,
2013-01-30 04:01:00,68.0,64.0,29.99,NNE,13,4.0,5.0,87,0.00,,,0.05,,2013-01-30 14:01:00,
2013-01-30 04:11:00,68.0,64.0,29.99,NNE,13,4.0,5.0,87,0.00,,,0.05,,2013-01-30 14:11:00,
2013-01-30 04:21:00,68.0,64.0,29.98,NNE,18,5.0,5.0,88,0.00,,,0.05,,2013-01-30 14:21:00,
2013-01-30 04:31:00,68.0,64.0,29.99,NNE,17,3.0,6.0,88,0.00,,,0.05,,2013-01-30 14:31:00,
2013-01-30 04:41:00,68.0,64.0,29.99,NNE,17,3.0,6.0,88,0.00,,,0.05,,2013-01-30 14:41:00,
2013-01-30 04:52:00,69.0,65.0,29.99,NNE,24,5.0,9.0,88,0.00,,,0.05,,2013-01-30 14:52:00,
2013-01-30 05:02:00,68.0,64.0,29.99,NNE,26,5.0,7.0,88,0.00,,,0.05,,2013-01-30 15:02:00,
2013-01-30 05:11:00,68.0,64.0,29.99,NNE,26,5.0,7.0,88,0.00,,,0.05,,2013-01-30 15:11:00,
2013-01-30 05:22:00,69.0,65.0,29.99,North,5,5.0,8.0,88,0.00,,,0.05,,2013-01-30 15:22:00,
2013-01-30 05:31:00,68.0,64.0,30.00,NNE,13,4.0,7.0,88,0.00,,,0.00,,2013-01-30 15:31:00,
2013-01-30 05:42:00,68.0,64.0,30.00,NNE,13,4.0,7.0,88,0.00,,,0.00,,2013-01-30 15:42:00,
2013-01-30 05:53:00,68.0,64.0,30.00,NNE,19,6.0,9.0,88,0.00,,,0.00,,2013-01-30 15:53:00,
2013-01-30 06:02:00,69.0,65.0,29.99,NNE,27,2.0,7.0,88,0.00,,,0.00,,2013-01-30 16:02:00,
2013-01-30 06:11:00,69.0,65.0,29.99,NNE,27,2.0,7.0,88,0.00,,,0.00,,2013-01-30 16:11:00,
2013-01-30 06:22:00,69.0,65.0,30.00,North,5,3.0,7.0,88,0.00,,,0.00,,2013-01-30 16:22:00,
2013-01-30 06:31:00,69.0,65.0,30.00,NNE,12,2.0,7.0,88,0.00,,,0.00,,2013-01-30 16:31:00,
2013-01-30 06:41:00,69.0,65.0,30.00,NNE,12,2.0,7.0,88,0.00,,,0.00,,2013-01-30 16:41:00,
2013-01-30 06:52:00,69.0,65.0,30.00,NNE,12,2.0,7.0,88,0.00,,,0.00,,2013-01-30 16:52:00,
2013-01-30 07:01:00,68.0,64.0,30.00,North,0,3.0,6.0,88,0.00,,,0.00,,2013-01-30 17:01:00,
2013-01-30 07:11:00,68.0,64.0,30.00,North,0,3.0,6.0,88,0.00,,,0.00,,2013-01-30 17:11:00,
2013-01-30 07:22:00,68.0,64.0,30.01,North,0,5.0,6.0,88,0.00,,,0.00,,2013-01-30 17:22:00,
2013-01-30 07:31:00,69.0,65.0,30.01,North,351,2.0,6.0,88,0.00,,,0.00,,2013-01-30 17:31:00,
2013-01-30 07:41:00,69.0,65.0,30.01,North,351,2.0,6.0,88,0.00,,,0.00,,2013-01-30 17:41:00,
2013-01-30 07:53:00,69.0,65.0,30.02,North,355,2.0,7.0,88,0.00,,,0.00,,2013-01-30 17:53:00,
2013-01-30 08:01:00,69.0,65.0,30.03,North,355,1.0,5.0,88,0.00,,,0.00,,2013-01-30 18:01:00,
2013-01-30 08:11:00,69.0,65.0,30.03,North,355,1.0,5.0,88,0.00,,,0.00,,2013-01-30 18:11:00,
2013-01-30 08:22:00,69.0,65.0,30.03,North,355,1.0,5.0,88,0.00,,,0.00,,2013-01-30 18:22:00,
2013-01-30 08:32:00,69.0,65.0,30.03,North,355,0.0,7.0,88,0.00,,,0.00,,2013-01-30 18:32:00,
2013-01-30 08:42:00,69.0,65.0,30.03,North,355,0.0,7.0,88,0.00,,,0.00,,2013-01-30 18:42:00,
2013-01-30 08:52:00,69.0,65.0,30.03,North,0,0.0,3.0,88,0.00,,,0.00,,2013-01-30 18:52:00,
2013-01-30 09:02:00,70.0,66.0,30.04,North,0,0.0,8.0,88,0.00,,,0.00,,2013-01-30 19:02:00,
2013-01-30 09:11:00,70.0,66.0,30.04,North,0,0.0,8.0,88,0.00,,,0.00,,2013-01-30 19:11:00,
2013-01-30 09:21:00,70.0,66.0,30.05,NE,47,0.0,6.0,88,0.00,,,0.00,,2013-01-30 19:21:00,
2013-01-30 09:31:00,70.0,66.0,30.05,North,355,5.0,7.0,88,0.00,,,0.00,,2013-01-30 19:31:00,
2013-01-30 09:42:00,70.0,66.0,30.05,North,355,5.0,7.0,88,0.00,,,0.00,,2013-01-30 19:42:00,
2013-01-30 09:52:00,70.0,66.0,30.05,NNW,340,6.0,7.0,87,0.00,,,0.00,,2013-01-30 19:52:00,
2013-01-30 10:02:00,71.0,67.0,30.06,NNW,331,7.0,9.0,86,0.00,,,0.00,,2013-01-30 20:02:00,
2013-01-30 10:11:00,71.0,67.0,30.06,NNW,331,7.0,9.0,86,0.00,,,0.00,,2013-01-30 20:11:00,
2013-01-30 10:21:00,72.0,67.0,30.06,NNW,332,6.0,10.0,85,0.00,,,0.00,,2013-01-30 20:21:00,
2013-01-30 10:32:00,73.0,67.0,30.06,NNW,342,7.0,12.0,81,0.00,,,0.00,,2013-01-30 20:32:00,
2013-01-30 10:41:00,73.0,67.0,30.06,NNW,342,7.0,12.0,81,0.00,,,0.00,,2013-01-30 20:41:00,
2013-01-30 10:52:00,74.0,67.0,30.06,NNW,329,6.0,10.0,78,0.00,,,0.00,,2013-01-30 20:52:00,
2013-01-30 11:02:00,75.0,67.0,30.05,NW,324,5.0,9.0,77,0.00,,,0.00,,2013-01-30 21:02:00,
2013-01-30 11:11:00,75.0,67.0,30.05,NW,324,5.0,9.0,77,0.00,,,0.00,,2013-01-30 21:11:00,
2013-01-30 11:21:00,75.0,67.0,30.05,NNW,340,6.0,14.0,76,0.00,,,0.00,,2013-01-30 21:21:00,
2013-01-30 11:31:00,76.0,67.0,30.05,NW,315,4.0,6.0,75,0.00,,,0.00,,2013-01-30 21:31:00,
2013-01-30 11:42:00,76.0,67.0,30.05,NW,315,4.0,6.0,75,0.00,,,0.00,,2013-01-30 21:42:00,
2013-01-30 11:52:00,76.0,67.0,30.05,NW,321,3.0,9.0,74,0.00,,,0.00,,2013-01-30 21:52:00,
2013-01-30 12:01:00,76.0,67.0,30.04,NNW,344,3.0,11.0,74,0.00,,,0.00,,2013-01-30 22:01:00,
2013-01-30 12:11:00,76.0,67.0,30.04,NNW,344,3.0,11.0,74,0.00,,,0.00,,2013-01-30 22:11:00,
2013-01-30 12:21:00,77.0,68.0,30.04,NNE,23,2.0,9.0,74,0.00,,,0.00,,2013-01-30 22:21:00,
2013-01-30 12:31:00,78.0,67.0,30.03,ENE,61,7.0,12.0,70,0.00,,,0.00,,2013-01-30 22:31:00,
2013-01-30 12:41:00,78.0,67.0,30.03,ENE,61,7.0,12.0,70,0.00,,,0.00,,2013-01-30 22:41:00,
2013-01-30 12:52:00,79.0,69.0,30.03,ENE,73,4.0,11.0,71,0.00,,,0.00,,2013-01-30 22:52:00,
2013-01-30 13:01:00,79.0,69.0,30.03,NE,45,5.0,13.0,71,0.00,,,0.00,,2013-01-30 23:01:00,
2013-01-30 13:11:00,79.0,69.0,30.03,NE,45,5.0,13.0,71,0.00,,,0.00,,2013-01-30 23:11:00,
2013-01-30 13:21:00,79.0,68.0,30.02,NE,44,6.0,11.0,69,0.00,,,0.00,,2013-01-30 23:21:00,
2013-01-30 13:32:00,79.0,68.0,30.01,ENE,67,4.0,12.0,70,0.00,,,0.00,,2013-01-30 23:32:00,
2013-01-30 13:42:00,79.0,68.0,30.01,ENE,67,4.0,12.0,70,0.00,,,0.00,,2013-01-30 23:42:00,
2013-01-30 13:52:00,80.0,68.0,30.01,NE,36,7.0,11.0,68,0.00,,,0.00,,2013-01-30 23:52:00,
2013-01-30 14:01:00,80.0,69.0,30.00,ENE,76,8.0,11.0,69,0.00,,,0.00,,2013-01-31 00:01:00,
2013-01-30 14:11:00,80.0,69.0,30.00,ENE,76,8.0,11.0,69,0.00,,,0.00,,2013-01-31 00:11:00,
2013-01-30 14:21:00,79.0,69.0,30.00,NE,51,8.0,12.0,71,0.00,,,0.00,,2013-01-31 00:21:00,
2013-01-30 14:31:00,80.0,70.0,30.00,ENE,59,3.0,10.0,71,0.00,,,0.00,,2013-01-31 00:31:00,
2013-01-30 14:41:00,80.0,70.0,30.00,ENE,59,3.0,10.0,71,0.00,,,0.00,,2013-01-31 00:41:00,
2013-01-30 14:53:00,79.0,69.0,29.99,ENE,69,10.0,10.0,71,0.00,,,0.00,,2013-01-31 00:53:00,
2013-01-30 15:01:00,79.0,69.0,29.99,NE,55,5.0,12.0,72,0.00,,,0.00,,2013-01-31 01:01:00,
2013-01-30 15:11:00,79.0,69.0,29.99,NE,55,5.0,12.0,72,0.00,,,0.00,,2013-01-31 01:11:00,
2013-01-30 15:21:00,78.0,68.0,29.99,NE,40,2.0,12.0,72,0.00,,,0.00,,2013-01-31 01:21:00,
2013-01-30 15:31:00,79.0,70.0,29.99,NE,41,1.0,10.0,73,0.00,,,0.00,,2013-01-31 01:31:00,
2013-01-30 15:41:00,79.0,70.0,29.99,NE,41,1.0,10.0,73,0.00,,,0.00,,2013-01-31 01:41:00,
2013-01-30 15:52:00,78.0,69.0,29.99,NNE,29,6.0,15.0,74,0.00,,,0.00,,2013-01-31 01:52:00,
2013-01-30 16:01:00,77.0,68.0,29.98,NNW,334,2.0,15.0,75,0.00,,,0.00,,2013-01-31 02:01:00,
2013-01-30 16:11:00,77.0,68.0,29.98,NNW,334,2.0,15.0,75,0.00,,,0.00,,2013-01-31 02:11:00,
2013-01-30 16:21:00,77.0,69.0,29.99,NE,38,6.0,14.0,76,0.00,,,0.00,,2013-01-31 02:21:00,
2013-01-30 16:31:00,77.0,69.0,29.99,NE,49,4.0,10.0,76,0.00,,,0.00,,2013-01-31 02:31:00,
2013-01-30 16:41:00,77.0,69.0,29.99,NE,49,4.0,10.0,76,0.00,,,0.00,,2013-01-31 02:41:00,
2013-01-30 16:52:00,77.0,69.0,29.99,NE,49,4.0,10.0,76,0.00,,,0.00,,2013-01-31 02:52:00,
2013-01-30 17:01:00,76.0,68.0,30.00,North,5,5.0,11.0,77,0.00,,,0.00,,2013-01-31 03:01:00,
2013-01-30 17:11:00,76.0,68.0,30.00,North,5,5.0,11.0,77,0.00,,,0.00,,2013-01-31 03:11:00,
2013-01-30 17:21:00,75.0,67.0,30.00,NNE,14,10.0,10.0,77,0.00,,,0.00,,2013-01-31 03:21:00,
2013-01-30 17:31:00,74.0,67.0,30.00,North,11,6.0,9.0,79,0.00,,,0.00,,2013-01-31 03:31:00,
2013-01-30 17:41:00,74.0,67.0,30.00,North,11,6.0,9.0,79,0.00,,,0.00,,2013-01-31 03:41:00,
2013-01-30 17:52:00,74.0,67.0,30.00,North,355,6.0,13.0,80,0.00,,,0.00,,2013-01-31 03:52:00,
2013-01-30 18:01:00,73.0,67.0,30.01,NNE,15,5.0,9.0,81,0.00,,,0.00,,2013-01-31 04:01:00,
2013-01-30 18:11:00,73.0,67.0,30.01,NNE,15,5.0,9.0,81,0.00,,,0.00,,2013-01-31 04:11:00,
2013-01-30 18:21:00,73.0,67.0,30.01,NE,37,4.0,11.0,81,0.00,,,0.00,,2013-01-31 04:21:00,
2013-01-30 18:31:00,73.0,67.0,30.01,NNE,19,5.0,11.0,81,0.00,,,0.00,,2013-01-31 04:31:00,
2013-01-30 18:41:00,73.0,67.0,30.01,NNE,19,5.0,11.0,81,0.00,,,0.00,,2013-01-31 04:41:00,
2013-01-30 18:52:00,73.0,67.0,30.01,NNE,28,5.0,12.0,81,0.00,,,0.00,,2013-01-31 04:52:00,
2013-01-30 19:02:00,72.0,66.0,30.01,NE,44,4.0,12.0,82,0.00,,,0.00,,2013-01-31 05:02:00,
2013-01-30 19:11:00,72.0,66.0,30.01,NE,44,4.0,12.0,82,0.00,,,0.00,,2013-01-31 05:11:00,
2013-01-30 19:21:00,72.0,67.0,30.01,ENE,59,12.0,12.0,83,0.00,,,0.00,,2013-01-31 05:21:00,
2013-01-30 19:31:00,72.0,67.0,30.01,ENE,59,12.0,12.0,83,0.00,,,0.00,,2013-01-31 05:31:00,
2013-01-30 19:41:00,72.0,67.0,30.01,NE,46,6.0,13.0,83,0.00,,,0.00,,2013-01-31 05:41:00,
2013-01-30 19:52:00,72.0,67.0,30.01,NE,46,6.0,13.0,83,0.00,,,0.00,,2013-01-31 05:52:00,
2013-01-30 20:01:00,72.0,67.0,30.01,NE,46,6.0,13.0,83,0.00,,,0.00,,2013-01-31 06:01:00,
2013-01-30 20:10:00,72.0,67.0,30.01,NE,46,6.0,13.0,83,0.00,,,0.00,,2013-01-31 06:10:00,